[[{"header":{"parameterUnit":"m.s-1","parameterCategory":1,"la1":30.2991,"la2":30.254,"lo1":-89.0895,"lo2":-89.0444,"dy":0.0017,"dx":0.0017,"nx":28,"ny":28,"refTime":"2024-03-27T03:00:00:Z","depth":0,"parameterNumber":2,"parameterNumberName":"U-component_of_WINDS"},"data":[0,0,0,0,0,0,0,0,0,0,0,0,0,0,0,0,0,0,0,0,0,0,0,0,0,0,0,0,0,0,0,0,0,0,0,0,0,0,0,0,0,0,0,0,0,0,0,0,0,0,0,0,0,0,0,0,0,0,0.9901,0.9901,0,0.9942,0.9942,0.9943,0.9961,0.9961,0.9961,0.9961,1.0003,1.0004,1.0005,0,0,0,0,0,0,0,0,0,0,0,0,0,0.984,0.9841,0.9901,0.9901,0.9902,0.9942,0.9942,0.9943,0.9961,0.9961,0.9961,0.9961,1.0002,1.0004,1.0005,0,0,0,0,0,0,0,0,0,0,0,0,0,0.9872,0.9842,0.9901,0.9916,0.9918,0.9942,0.9942,0.9943,0.9961,0.9961,0.9961,0.9961,1.0002,1.0004,1.0005,1.0018,0,0,1.0011,1.0012,0,0,0,0,0,0,0,0,0.9871,0.9875,0.9913,0.9915,0.9917,0.9946,0.9936,0.9968,0.9961,0.9944,0.9961,0.9961,0.9984,0.9987,0.9995,1.002,1.0021,1.0011,1.0012,1.0013,1.0013,0,0,0,0,0,0,0,0.9868,0.9873,0.9917,0.9914,0.9916,0.9921,0.9926,0.9942,0.9964,0.9946,0.9947,0.9952,0.9985,0.9993,0.9996,1.0022,1.0011,1.0012,1.0013,1.0014,1.0061,1.0061,0,0,0,0,0,0,0.9863,0.9871,0.9916,0.9918,0.9893,0.9922,0.9927,0.9937,0.9964,0.9968,0.9952,0.9953,0.999,0.9994,0.9998,1.0015,1.0013,1.0014,1.0015,1.0061,1.0061,1.0061,0,0,0,0,0,0,0.9862,0.9867,0.9914,0.9895,0.9901,0.9923,0.9934,0.9938,0.9946,0.9969,0.9973,0.9956,0.9991,0.9995,1.0013,1.0017,1.0015,1.0017,1.0061,1.0061,1.0061,1.0049,0,0,0,0,0,0,0.986,0.9867,0.9871,0.9895,0.9902,0.9928,0.9934,0.9939,0.9949,0.995,0.9974,0.9978,0.9991,1.001,1.0015,1.0019,1.0018,1.006,1.0061,1.0061,1.0049,1.0048,1.0048,0,0,0,0,0,0.9858,0.9865,0.9871,0.9876,0.9908,0.9928,0.9932,0.9947,0.9949,0.9954,0.9969,0.9977,1.0016,1.0012,1.0017,1.0022,1.006,1.0061,1.0061,1.0049,1.0048,1.0048,0,0,0,0,0,0,0.984,0.9869,0.9875,0.9891,0.9907,0.9931,0.9938,0.9946,0.9962,0.9963,0.9981,0.9986,1.0003,1.0014,1.001,1.0036,1.0039,1.004,1.0028,1.0028,1.0027,1.0024,1.002,0,0,0,0,0,0.9839,0.9852,0.9876,0.9888,0.9895,0.9915,0.9924,0.9935,0.9952,0.9959,0.9976,0.9993,1.0009,1.0019,1.0035,1.0051,1.0057,1.0057,1.0057,1.0057,1.0057,1.0068,1.0069,1.0063,1.0063,1.0063,0,0,0.9834,0.9852,0.9859,0.9885,0.9898,0.9913,0.9921,0.9935,0.9946,0.9962,0.9979,0.9992,1.0013,1.003,1.0038,1.004,1.0061,1.0057,1.0057,1.0058,1.0069,1.0069,1.007,1.0063,1.0063,1.0063,0,0,0.9834,0.9848,0.9859,0.9874,0.9895,0.9908,0.9911,0.9935,0.9944,0.9962,0.9975,0.9989,1.0016,1.003,1.0041,1.0049,1.0058,1.0054,1.0052,1.0063,1.0063,1.0063,1.0067,1.0068,1.0055,1.0055,1.0055,0,0.9826,0.9847,0.9864,0.9878,0.989,0.9906,0.9918,0.9931,0.9956,0.9964,0.9966,1.0002,1.0017,1.0038,1.004,1.0049,1.0053,1.0051,1.0062,1.0062,1.0063,1.0066,1.0068,1.0055,1.0055,1.0055,1.0055,0,0.9837,0.9852,0.9859,0.9884,0.9896,0.9909,0.9929,0.9939,0.995,0.9963,0.9983,1.0002,1.0022,1.0029,1.0038,1.0052,1.0053,1.0058,1.0061,1.0063,1.0066,1.0068,1.0054,1.0054,1.0054,1.0054,0,0,0.9824,0.986,0.9862,0.9874,0.99,0.9912,0.9927,0.9948,0.9957,0.9975,0.9988,1.0012,1.0018,1.003,1.0042,1.0051,1.0058,1.0056,1.0056,1.0055,1.0075,1.0071,1.0072,1.0064,1.0064,1.0064,1.0074,0,0.9828,0.9854,0.9871,0.9891,0.9906,0.9922,0.9935,0.9953,0.9967,0.9982,0.9998,1.0015,1.002,1.0028,1.0038,1.0055,1.0062,1.0054,1.0077,1.0077,1.007,1.0074,1.0069,1.0076,1.0075,1.0075,1.0076,0,0.9834,0.9852,0.9874,0.9899,0.9906,0.9918,0.9939,0.9953,0.9974,0.9984,0.9999,1.0012,1.0029,1.0032,1.0056,1.0051,1.0062,1.0072,1.0072,1.0074,1.0076,1.0076,1.0079,1.008,1.0078,1.0078,1.0078,0,0.9823,0.9853,0.987,0.988,0.991,0.9918,0.9931,0.9953,0.9965,0.9984,0.9992,1.0013,1.0024,1.0041,1.0059,1.0059,1.0083,1.0086,1.0092,1.0091,1.0095,1.0094,1.0099,1.0102,1.0102,1.0102,1.0102,0,0.9824,0.9837,0.9866,0.9876,0.9891,0.9912,0.9926,0.9941,0.996,0.9975,0.999,1.0004,1.0027,1.0044,1.0059,1.0078,1.0083,1.0091,1.0095,1.009,1.0088,1.0096,1.0096,1.0103,1.0103,1.0102,1.0102,0,0.9814,0.9834,0.9854,0.9882,0.9889,0.9899,0.9923,0.9935,0.995,0.9969,0.9974,0.9999,1.0019,1.004,1.0067,1.0077,1.0096,1.0101,1.0089,1.009,1.0095,1.0094,1.0105,1.0108,1.0109,1.0109,1.0109,0,0.9813,0.9823,0.9853,0.9864,0.9877,0.9894,0.9907,0.9928,0.994,0.9967,0.9975,0.9997,1.0016,1.0048,1.0069,1.0091,1.0096,1.0099,1.0099,1.0094,1.0096,1.0095,1.0097,1.0098,1.0097,1.0097,1.0097,0,0.981,0.9819,0.9837,0.9859,0.9874,0.9892,0.991,0.9919,0.9943,0.9957,0.9979,0.9993,1.0022,1.0044,1.0069,1.0083,1.0095,1.0097,1.01,1.0094,1.0086,1.0091,1.0087,1.0096,1.0097,1.0097,1.0097,1.0097,0.9804,0.9815,0.9837,0.9857,0.9874,0.9891,0.9904,0.9922,0.994,0.9965,0.9977,0.9998,1.0022,1.0056,1.0071,1.0089,1.0091,1.0095,1.0096,1.0096,1.0095,1.0084,1.0093,1.0093,1.0093,1.0093,1.0093,0,0.9802,0.9818,0.9836,0.9862,0.9878,0.9888,0.991,0.9922,0.9941,0.9962,0.998,1.0006,1.0028,1.0051,1.0075,1.0085,1.0091,1.009,1.0089,1.0093,1.0091,1.0086,1.0085,1.0085,1.0085,1.0085,1.0085,1.0085,0.9802,0.9821,0.9833,0.9861,0.9877,0.9899,0.991,0.9927,0.9944,0.9972,0.999,1.0005,1.0028,1.0054,1.0075,1.0081,1.0089,1.0087,1.0095,1.0092,1.0093,1.0093,1.0089,1.0089,1.0089,1.0096,1.0096,1.0096]},{"header":{"parameterUnit":"m.s-1","parameterCategory":1,"la1":30.2991,"la2":30.254,"lo1":-89.0895,"lo2":-89.0444,"dy":0.0017,"dx":0.0017,"nx":28,"ny":28,"refTime":"2024-03-27T03:00:00:Z","depth":0,"parameterNumber":3,"parameterNumberName":"V-component_of_WINDS"},"data":[0,0,0,0,0,0,0,0,0,0,0,0,0,0,0,0,0,0,0,0,0,0,0,0,0,0,0,0,0,0,0,0,0,0,0,0,0,0,0,0,0,0,0,0,0,0,0,0,0,0,0,0,0,0,0,0,0,0,-7.2092,-7.2093,0,-7.223,-7.2231,-7.2233,-7.216,-7.2156,-7.2153,-7.2149,-7.2285,-7.2292,-7.2299,0,0,0,0,0,0,0,0,0,0,0,0,0,-7.1761,-7.1767,-7.2092,-7.2093,-7.2095,-7.2229,-7.2231,-7.2233,-7.2161,-7.2156,-7.2152,-7.2148,-7.2283,-7.2291,-7.2299,0,0,0,0,0,0,0,0,0,0,0,0,0,-7.1902,-7.1769,-7.2091,-7.2075,-7.2075,-7.2229,-7.2231,-7.2234,-7.2162,-7.2156,-7.2151,-7.2145,-7.228,-7.229,-7.23,-7.2476,0,0,-7.2333,-7.2337,0,0,0,0,0,0,0,0,-7.1894,-7.1914,-7.2076,-7.2077,-7.2077,-7.2172,-7.2164,-7.2315,-7.2163,-7.2129,-7.2149,-7.2143,-7.2251,-7.2264,-7.2302,-7.2483,-7.2488,-7.2334,-7.234,-7.2345,-7.2348,0,0,0,0,0,0,0,-7.1884,-7.1908,-7.2146,-7.2078,-7.2079,-7.206,-7.2074,-7.2192,-7.2219,-7.2131,-7.2126,-7.2144,-7.2251,-7.2292,-7.2304,-7.249,-7.2333,-7.2343,-7.2349,-7.2353,-7.2822,-7.2828,0,0,0,0,0,0,-7.1876,-7.19,-7.2142,-7.215,-7.197,-7.207,-7.2086,-7.2147,-7.2218,-7.2223,-7.2149,-7.214,-7.2276,-7.2292,-7.2309,-7.252,-7.2345,-7.2354,-7.2361,-7.2816,-7.2823,-7.283,0,0,0,0,0,0,-7.1869,-7.1898,-7.2136,-7.2024,-7.2053,-7.2082,-7.2151,-7.2153,-7.2194,-7.2231,-7.2235,-7.2186,-7.2273,-7.2294,-7.2436,-7.2523,-7.2359,-7.2369,-7.2809,-7.2818,-7.2827,-7.2943,0,0,0,0,0,0,-7.186,-7.1896,-7.1965,-7.2026,-7.2059,-7.2263,-7.2157,-7.2159,-7.2213,-7.2203,-7.2267,-7.2272,-7.227,-7.242,-7.2446,-7.2535,-7.2377,-7.2801,-7.2813,-7.2824,-7.2931,-7.2955,-7.2975,0,0,0,0,0,-7.1849,-7.1991,-7.1969,-7.1998,-7.2146,-7.2268,-7.2286,-7.2282,-7.222,-7.2289,-7.2312,-7.227,-7.251,-7.2435,-7.2464,-7.2557,-7.2796,-7.281,-7.2823,-7.2921,-7.295,-7.2974,0,0,0,0,0,0,-7.1937,-7.1998,-7.1975,-7.2141,-7.22,-7.2255,-7.2341,-7.2313,-7.2389,-7.2377,-7.2367,-7.2382,-7.2529,-7.2557,-7.2473,-7.2731,-7.2643,-7.2663,-7.2708,-7.2735,-7.2757,-7.2747,-7.2386,0,0,0,0,0,-7.1976,-7.2072,-7.212,-7.2262,-7.2293,-7.2312,-7.2365,-7.2357,-7.2417,-7.2441,-7.2475,-7.2533,-7.2621,-7.268,-7.2763,-7.2935,-7.2947,-7.3013,-7.3034,-7.3052,-7.307,-7.3162,-7.3192,-7.2875,-7.2875,-7.2875,0,0,-7.2057,-7.2103,-7.2163,-7.2281,-7.2325,-7.2424,-7.2334,-7.2441,-7.2513,-7.2457,-7.2593,-7.262,-7.2684,-7.2842,-7.2913,-7.287,-7.316,-7.307,-7.3084,-7.3092,-7.318,-7.321,-7.3236,-7.2885,-7.2883,-7.2881,0,0,-7.2255,-7.23,-7.2424,-7.2471,-7.254,-7.2552,-7.2582,-7.2642,-7.2659,-7.2796,-7.2756,-7.284,-7.2992,-7.304,-7.3084,-7.3301,-7.3265,-7.3328,-7.3442,-7.3533,-7.3558,-7.358,-7.3657,-7.3685,-7.3345,-7.3346,-7.3346,0,-7.2347,-7.2495,-7.249,-7.2602,-7.2654,-7.2609,-7.2734,-7.2779,-7.2871,-7.2908,-7.2858,-7.3049,-7.3089,-7.3257,-7.331,-7.3347,-7.338,-7.3321,-7.3555,-7.3577,-7.3597,-7.3671,-7.37,-7.3353,-7.3352,-7.3351,-7.3351,0,-7.2605,-7.2708,-7.2799,-7.2892,-7.2954,-7.3072,-7.3083,-7.3146,-7.3133,-7.315,-7.329,-7.3336,-7.3428,-7.3467,-7.3454,-7.3634,-7.3605,-7.3556,-7.3467,-7.3635,-7.3704,-7.3732,-7.3363,-7.3361,-7.3358,-7.3357,0,0,-7.2862,-7.2952,-7.2985,-7.3027,-7.3101,-7.3179,-7.3294,-7.3386,-7.3441,-7.3506,-7.3601,-7.3731,-7.3686,-7.3736,-7.3728,-7.3808,-7.3977,-7.3749,-7.375,-7.379,-7.4178,-7.4215,-7.4248,-7.3954,-7.3959,-7.3963,-7.4172,0,-7.3066,-7.3269,-7.3268,-7.3455,-7.3549,-7.3508,-7.3608,-7.3663,-7.3682,-7.3764,-7.3783,-7.3876,-7.381,-7.384,-7.3917,-7.394,-7.4055,-7.3925,-7.4041,-7.4045,-7.4027,-7.4284,-7.4323,-7.4518,-7.4199,-7.4204,-7.4207,0,-7.333,-7.3407,-7.3604,-7.3664,-7.3704,-7.3794,-7.3878,-7.3958,-7.4019,-7.4027,-7.4084,-7.4063,-7.4178,-7.4086,-7.4244,-7.4156,-7.4203,-7.4222,-7.4229,-7.424,-7.4137,-7.4301,-7.458,-7.461,-7.4249,-7.4246,-7.4243,0,-7.3499,-7.3651,-7.3788,-7.3825,-7.3899,-7.3963,-7.3996,-7.4052,-7.4108,-7.4181,-7.4217,-7.4301,-7.4348,-7.4413,-7.4415,-7.4348,-7.4575,-7.4483,-7.4584,-7.4584,-7.4633,-7.463,-7.4924,-7.4664,-7.4663,-7.4663,-7.4662,0,-7.3727,-7.3849,-7.3865,-7.395,-7.4085,-7.4082,-7.4216,-7.4243,-7.4293,-7.4381,-7.435,-7.4433,-7.4431,-7.4515,-7.4517,-7.4647,-7.4668,-7.4677,-7.4676,-7.468,-7.4679,-7.4711,-7.4698,-7.467,-7.4669,-7.4667,-7.4666,0,-7.3938,-7.3954,-7.4101,-7.416,-7.4177,-7.4275,-7.4323,-7.4403,-7.4419,-7.4531,-7.4557,-7.4582,-7.4679,-7.4688,-7.48,-7.4802,-7.496,-7.4944,-7.494,-7.4937,-7.5038,-7.5028,-7.5362,-7.5406,-7.5117,-7.512,-7.5122,0,-7.4082,-7.4176,-7.4245,-7.4303,-7.434,-7.4433,-7.4491,-7.449,-7.4551,-7.4628,-7.4698,-7.4793,-7.4869,-7.5026,-7.5052,-7.5138,-7.5124,-7.5235,-7.5137,-7.5138,-7.5126,-7.5121,-7.513,-7.5254,-7.5258,-7.526,-7.5262,0,-7.4337,-7.4341,-7.4425,-7.4513,-7.4583,-7.4651,-7.4715,-7.4764,-7.4771,-7.484,-7.4941,-7.5,-7.5115,-7.5209,-7.5294,-7.5325,-7.5296,-7.5293,-7.5321,-7.5326,-7.532,-7.5325,-7.4992,-7.5286,-7.5283,-7.5282,-7.528,-7.5279,-7.452,-7.4601,-7.4663,-7.4758,-7.4806,-7.4867,-7.4946,-7.4972,-7.5057,-7.5152,-7.5146,-7.5257,-7.5315,-7.5425,-7.5464,-7.5549,-7.5512,-7.5552,-7.5562,-7.5573,-7.5583,-7.5307,-7.5564,-7.5564,-7.5563,-7.5563,-7.5562,0,-7.4773,-7.4811,-7.4899,-7.499,-7.5065,-7.5032,-7.5101,-7.5165,-7.5264,-7.5322,-7.5398,-7.5513,-7.5604,-7.5638,-7.5727,-7.5789,-7.5777,-7.5812,-7.5807,-7.5815,-7.5611,-7.5579,-7.582,-7.582,-7.582,-7.582,-7.582,-7.582,-7.4914,-7.505,-7.5061,-7.522,-7.5256,-7.5367,-7.5409,-7.5464,-7.5511,-7.5641,-7.5718,-7.574,-7.5789,-7.5881,-7.5962,-7.597,-7.6004,-7.6045,-7.6047,-7.5856,-7.583,-7.5805,-7.5774,-7.6052,-7.6053,-7.6244,-7.6245,-7.6247]}]]